STARLINK-32202

Last updated on Fri Sep 20 2024 00:02:03 GMT+0000 (Coordinated Universal Time)

1 60595U 24150N 24263.36770424 .00004042 00000+0 11097-3 0 9997 2 60595 53.1582 280.6283 0001401 89.1967 270.9198 15.39619477 5896
UTC large
Height (km)
Speed (km/s)
/
Latitude / Longitude
Inclination (degrees)
Orbital Period (minutes)
Azimuth
Elevation
Range (km)
Doppler Factor

Next 0 passes for location: London (51.5072 / 0.1276)

Sorry there are no passes over London.